This is the latest recevied weather packets stored in our database for station/object AJ7DN. If no packets are shown the sender has not sent any weather packets the latest 10 day(s).
| Time | Temp. | Humidity | Pressure | Rain* | Wind** | Luminosity | Snow |
|---|---|---|---|---|---|---|---|
| 1777776742 | 17.78° C | 76% | 1016 hPa | 0 mm | - | 7 W/m² | - |
| 1777776439 | 17.78° C | 76% | 1016 hPa | 0 mm | - | 9 W/m² | - |
| 1777776136 | 17.78° C | 76% | 1016.1 hPa | 0 mm | - | 11 W/m² | - |
| 1777775833 | 18.33° C | 76% | 1016.3 hPa | 0 mm | - | 13 W/m² | - |
| 1777775529 | 18.33° C | 75% | 1016.2 hPa | 0 mm | - | 16 W/m² | - |
| 1777775226 | 18.33° C | 75% | 1016.6 hPa | 0 mm | - | 19 W/m² | - |
| 1777774925 | 18.33° C | 74% | 1016.4 hPa | 0 mm | - | 21 W/m² | - |
| 1777774623 | 18.33° C | 74% | 1016.7 hPa | 0 mm | - | 26 W/m² | - |
| 1777774319 | 18.89° C | 74% | 1017 hPa | 0 mm | - | 30 W/m² | - |
| 1777774016 | 18.89° C | 73% | 1017.2 hPa | 0 mm | - | 33 W/m² | - |
| 1777773714 | 18.89° C | 73% | 1017.4 hPa | 0 mm | - | 36 W/m² | - |
| 1777773410 | 18.89° C | 72% | 1017.2 hPa | 0 mm | - | 40 W/m² | - |
| 1777773107 | 18.89° C | 73% | 1017.3 hPa | 0 mm | - | 43 W/m² | - |
| 1777772803 | 18.89° C | 73% | 1017.1 hPa | 0 mm | - | 47 W/m² | - |
| 1777772501 | 19.44° C | 72% | 1016.6 hPa | 0 mm | - | 50 W/m² | - |
| 1777772198 | 19.44° C | 72% | 1016.4 hPa | 0 mm | - | 55 W/m² | - |
| 1777771896 | 19.44° C | 72% | 1016.4 hPa | 0 mm | - | 59 W/m² | - |
| 1777771593 | 19.44° C | 73% | 1016.1 hPa | 0 mm | - | 64 W/m² | - |
| 1777771290 | 19.44° C | 73% | 1016.3 hPa | 0 mm | - | 65 W/m² | - |
| 1777770986 | 18.89° C | 72% | 1016.2 hPa | 0 mm | - | 66 W/m² | - |
| 1777770684 | 19.44° C | 73% | 1016.2 hPa | 0 mm | - | 69 W/m² | - |
| 1777770380 | 19.44° C | 71% | 1016.2 hPa | 0 mm | - | 72 W/m² | - |
| 1777770077 | 19.44° C | 72% | 1016.1 hPa | 0 mm | - | 75 W/m² | - |
| 1777769774 | 19.44° C | 71% | 1016.4 hPa | 0 mm | - | 79 W/m² | - |
| 1777769471 | 20° C | 70% | 1016.1 hPa | 0 mm | - | 85 W/m² | - |
* Rain latest hour (hover to see other rain measurements)
** Current wind speed in m/s (hover to see current wind gust speed)